Rawlins, WY

4:11 AM MDT on July 28, 2017 (GMT -0600)
Rawlins Municipal

Weather History for KRWL - October, 2013

Change the Weather History Date:

Monday, October 21, 2013

  Actual Average Record
Temperature  
Mean Temperature 39 °F 42 °F  
Max Temperature 52 °F 54 °F 75 °F (2003)
Min Temperature 25 °F 29 °F 9 °F (1996)
Degree Days  
Heating Degree Days 26 23  
Month to date heating degree days 528 415  
Since 1 July heating degree days 743 801  
Cooling Degree Days 0 0  
Month to date cooling degree days 0 0  
Year to date cooling degree days 371 186  
Moisture  
Dew Point 25 °F    
Average Humidity 61    
Maximum Humidity 92    
Minimum Humidity 30    
Precipitation  
Precipitation 0.00 in 0.02 in 0.45 in (1972)
Month to date precipitation 1.18 0.54  
Year to date precipitation 7.42 8.06  
Sea Level Pressure  
Sea Level Pressure 30.17 in    
Wind  
Wind Speed 12 mph (WSW)    
Max Wind Speed 23 mph    
Max Gust Speed 29 mph    
Visibility 10 miles    
Events      
T = Trace of Precipitation, MM = Missing Value Source: NWS Daily Summary

Daily Weather History Graph

Daily Weather History Graph

Search for Another Location

Airport or City:

Trip Planner

Search our weather history database for the weather conditions in past years. The results will help you decide how hot, cold, wet, or windy it might be!

Date:

Astronomy

Oct. 21, 2013 Rise Set
Actual Time 7:28 AM MDT 6:17 PM MDT
Civil Twilight 6:59 AM MDT 6:46 PM MDT
Nautical Twilight 6:27 AM MDT 7:18 PM MDT
Astronomical Twilight 5:55 AM MDT 7:50 PM MDT
Moon 8:10 PM MDT (10/21) 10:08 AM MDT (10/21)
Length of Visible Light 11h 46m
Length of Day
10h 49m
Waning Gibbous, 92% of the Moon is Illuminated
Oct 21
Waning Gibbous
Oct 26
Last Quarter
Nov 3
New
Nov 9
First Quarter
Nov 17
Full

Hourly Weather History & Observations

Time (MDT) Temp. Windchill Dew Point Humidity Pressure Visibility Wind Dir Wind Speed Gust Speed Precip Events Conditions
12:53 AM 32.0 °F - 27.0 °F 82% 30.14 in 10.0 mi Calm Calm - N/A   Overcast
1:53 AM 30.0 °F - 25.0 °F 82% 30.14 in 10.0 mi Calm Calm - N/A   Mostly Cloudy
2:53 AM 26.1 °F - 23.0 °F 88% 30.18 in 10.0 mi Calm Calm - N/A   Scattered Clouds
3:53 AM 28.0 °F 24.2 °F 24.1 °F 85% 30.16 in 10.0 mi WNW 3.5 mph - N/A   Scattered Clouds
4:53 AM 28.9 °F - 25.0 °F 85% 30.18 in 10.0 mi Calm Calm - N/A   Overcast
5:53 AM 27.0 °F 23.0 °F 24.1 °F 89% 30.19 in 10.0 mi West 3.5 mph - N/A   Clear
6:53 AM 28.0 °F 22.8 °F 25.0 °F 88% 30.20 in 10.0 mi West 4.6 mph - N/A   Clear
7:53 AM 30.9 °F 19.8 °F 26.1 °F 82% 30.21 in 10.0 mi WSW 16.1 mph 21.9 mph N/A   Clear
8:53 AM 33.1 °F 23.9 °F 28.0 °F 82% 30.23 in 10.0 mi WSW 12.7 mph 20.7 mph N/A   Clear
9:53 AM 37.0 °F 29.8 °F 28.9 °F 73% 30.25 in 10.0 mi West 10.4 mph 19.6 mph N/A   Clear
10:53 AM 41.0 °F 32.8 °F 28.0 °F 60% 30.22 in 10.0 mi WSW 16.1 mph - N/A   Clear
11:53 AM 45.0 °F 37.6 °F 28.9 °F 53% 30.19 in 10.0 mi WSW 17.3 mph - N/A   Clear
12:53 PM 48.0 °F - 26.1 °F 42% 30.16 in 10.0 mi WSW 17.3 mph - N/A   Clear
1:53 PM 50.0 °F - 25.0 °F 38% 30.14 in 10.0 mi WSW 17.3 mph 23.0 mph N/A   Clear
2:53 PM 51.1 °F - 25.0 °F 36% 30.14 in 10.0 mi WSW 18.4 mph 23.0 mph N/A   Clear
3:53 PM 52.0 °F - 21.9 °F 31% 30.12 in 10.0 mi WSW 16.1 mph - N/A   Clear
4:53 PM 51.1 °F - 21.9 °F 32% 30.13 in 10.0 mi West 16.1 mph 25.3 mph N/A   Clear
5:53 PM 48.9 °F - 23.0 °F 36% 30.15 in 10.0 mi West 12.7 mph - N/A   Clear
6:53 PM 46.9 °F - 23.0 °F 39% 30.15 in 10.0 mi West 13.8 mph - N/A   Clear
7:53 PM 41.0 °F 33.5 °F 24.1 °F 51% 30.18 in 10.0 mi WSW 13.8 mph - N/A   Partly Cloudy
8:53 PM 43.0 °F 36.8 °F 24.1 °F 47% 30.17 in 10.0 mi WSW 11.5 mph - N/A   Overcast
9:53 PM 43.0 °F 35.7 °F 23.0 °F 45% 30.16 in 10.0 mi WSW 15.0 mph - N/A   Scattered Clouds
10:53 PM 43.0 °F 35.1 °F 23.0 °F 45% 30.14 in 10.0 mi WSW 17.3 mph - N/A   Clear
11:53 PM 41.0 °F 33.1 °F 24.1 °F 51% 30.13 in 10.0 mi WSW 15.0 mph - N/A   Clear